SCP
0 0 0 0 0 0 0 0 0 0 0 0 0 0 0 1 1 1 1 0 0 0 -0 -0 -0 0 -0 -0 0 0 0 1 1 1 1 0 1 1 0 1 1 1 1 1
0 0 0 0 0 0 -0 -0 0 0 0 0 0 0 0 0 1 1 1 2 1 0 -0 -0 0 0 -0 -0 1 2 1 1 1 1 1 0 1 2 1 1 2 1 2 1
-0 0 0 -0 0 0 0 0 0 0 0 0 0 0 1 0 0 1 2 2 2 1 0 0 1 3 3 1 1 1 1 1 1 1 0 0 -0 0 1 1 2 2 1 1
-0 0 -0 0 0 0 0 0 0 0 0 0 0 0 0 1 1 1 2 0 0 0 0 1 2 3 3 2 2 1 1 0 0 0 0 0 0 0 0 0 0 0 0 0
0 0 -0 0 0 0 0 0 0 0 0 0 0 0 0 0 0 0 0 -0 -0 -0 0 2 0 1 2 2 2 1 1 0 0 0 0 0 0 0 0 0 0 0 0 0
0 0 0 0 0 0 0 0 0 0 0 0 0 0 0 -0 -0 0 0 0 0 0 0 0 0 0 0 1 1 0 1 0 0 0 0 0 0 0 0 0 0 1 1 0
0 0 0 0 0 0 0 0 0 0 0 0 0 0 0 0 0 -0 -0 0 0 -0 0 0 0 0 0 0 1 1 0 1 0 0 0 0 0 1 1 1 1 1 1 1
0 0 0 0 0 0 0 0 0 0 0 0 0 0 0 0 0 0 0 0 0 0 -0 -0 1 0 0 0 0 0 0 1 1 1 1 1 1 1 1 1 1 1 1 1
0 0 0 0 0 0 0 0 0 0 0 0 0 0 0 0 0 0 0 0 0 0 0 0 0 0 0 0 0 1 0 0 0 0 1 1 2 2 1 1 1 1 1 0
0 0 0 0 0 0 0 0 0 0 0 0 0 0 0 0 0 0 0 0 0 0 0 0 0 0 0 0 0 0 0 0 0 0 2 4 4 4 3 2 1 1 1 1
0 0 0 0 0 0 0 0 0 0 0 0 0 0 0 0 0 0 0 0 0 0 0 0 0 0 0 0 0 0 0 0 0 0 1 2 2 3 3 3 3 2 1 1
0 0 0 0 0 0 0 0 0 0 0 0 0 0 0 0 0 0 0 0 0 0 0 0 0 0 1 2 1 0 0 1 1 1 1 0 0 0 1 1 0 0 0 0
0 0 0 0 0 0 0 0 0 0 0 0 0 0 0 0 0 0 0 0 0 0 0 0 0 0 0 1 3 2 2 2 1 0 0 0 0 0 0 0 0 0 0 0
0 0 0 0 0 0 0 0 0 0 0 0 0 0 0 0 0 0 0 0 0 0 0 0 0 0 0 0 0 1 2 2 2 1 0 0 0 0 0 0 0 0 0 0
0 0 0 0 0 0 0 0 0 0 0 0 0 0 0 0 0 0 0 0 0 0 0 0 0 0 0 0 -0 -0 0 0 1 0 0 0 0 0 0 0 0 0 0 0
0 0 0 0 0 0 0 0 0 0 0 0 0 0 0 0 0 0 0 0 0 0 0 0 0 0 0 -0 -0 -0 -0 -0 -0 0 0 0 0 0 0 0 0 0 0 0
0 0 0 0 0 0 0 0 0 0 0 0 0 0 0 0 0 0 0 0 0 0 0 0 0 0 0 -0 -0 -0 0 0 0 0 0 0 0 0 0 0 0 0 0 0
0 0 0 0 0 0 0 0 0 0 0 0 0 0 0 0 0 0 0 0 0 0 0 0 0 0 0 0 -0 -0 0 0 0 0 0 0 0 0 0 0 0 0 0 0
0 0 0 0 0 0 0 0 0 0 0 0 0 0 0 0 0 0 0 0 0 0 0 0 0 0 0 0 0 0 0 0 0 0 0 0 0 0 0 0 0 0 0 0
0 0 0 0 0 0 0 0 0 0 0 0 0 0 0 0 -0 0 0 0 0 0 0 0 0 0 0 0 0 0 0 -0 0 0 0 0 0 0 0 0 0 0 0 0
0 0 0 0 0 0 0 0 0 0 0 0 0 0 -0 -0 -0 0 0 0 0 0 0 0 0 0 0 0 -0 -0 -0 -0 -0 -0 0 0 0 0 0 0 0 0 0 0
0 0 0 0 0 0 0 0 0 0 0 0 0 -0 0 -0 -0 0 0 0 0 -0 0 0 0 0 0 0 0 0 0 0 -0 -0 -0 0 0 0 0 0 0 0 0 0
0 0 0 0 0 0 0 0 0 0 0 0 -0 -0 0 0 0 0 0 0 0 0 0 0 0 -0 0 0 0 0 0 0 -0 0 0 0 0 0 0 0 0 0 0 0
0 0 0 0 0 0 0 0 0 -0 0 -0 0 0 0 -0 -0 0 0 0 0 0 0 0 0 0 0 0 0 0 -0 -0 -0 0 0 0 0 0 0 0 0 0 0 0
0 0 0 0 0 0 0 -0 -0 -0 -0 0 0 0 0 0 0 0 0 0 0 0 0 0 0 0 0 -0 -0 -0 -0 -0 -0 -0 -0 0 0 0 0 0 0 0 0 0
0 0 -0 0 0 -0 -0 -0 -0 -0 -0 -0 -0 -0 -0 -0 -0 0 0 0 0 0 0 0 0 0 0 0 0 0 -0 -0 -0 -0 -0 -0 -0 -0 0 0 0 0 0 0
0 0 -0 -0 -0 -0 -0 -0 -0 -0 -0 -0 -0 -0 -0 -0 0 0 0 0 0 0 0 -0 -0 0 0 0 0 0 0 0 0 0 0 -0 -0 -0 -0 -0 -0 0 -0 0
Wind_Speed_500mb
15 19 17 19 20 17 11 15 7 20 11 16 17 18 26 27 15 12 11 50 38 50 60 76 90 58 68 63 50 75 71 57 53 55 50 40 27 31 34 38 38 43 49 52
10 16 17 12 19 20 17 17 13 13 14 14 18 40 30 21 23 22 16 16 21 35 47 34 27 32 52 45 58 87 76 67 64 54 41 37 39 56 42 37 46 44 46 54
10 15 19 14 19 15 7 13 11 11 12 14 21 45 43 12 18 37 30 17 4 26 17 21 21 26 38 44 54 76 75 68 62 48 34 70 54 39 53 45 51 54 44 53
8 9 12 19 18 14 7 11 15 18 28 36 33 53 73 55 33 23 23 21 48 64 23 34 36 39 40 43 45 52 66 69 62 44 48 62 66 50 50 52 56 50 54 46
6 5 16 21 6 11 8 15 23 26 28 45 37 47 47 40 35 18 12 7 25 49 11 40 41 37 38 39 46 54 61 63 46 46 49 42 39 41 40 58 64 63 48 58
2 3 7 8 8 20 11 7 20 34 24 32 44 14 8 31 31 19 17 9 18 47 3 28 8 33 5 25 43 54 52 45 39 40 36 37 36 27 24 21 17 20 38 52
6 8 11 8 16 15 4 7 30 34 30 31 12 16 33 37 32 26 26 16 32 35 29 38 33 43 32 22 32 17 26 27 27 29 32 35 33 29 28 23 19 19 26 34
6 6 6 15 8 8 10 28 24 28 35 36 34 34 35 35 37 34 36 39 37 37 35 27 32 54 41 19 14 18 17 19 21 32 41 41 40 39 34 29 28 31 36 40
12 10 10 32 26 21 18 12 23 21 20 26 30 31 34 38 37 39 42 44 44 44 36 32 23 29 57 69 72 56 55 48 29 41 43 42 42 41 39 39 39 39 36 35
5 2 16 17 20 14 19 25 19 17 18 19 22 25 31 39 44 50 49 44 36 34 33 36 32 24 27 38 73 78 63 56 67 70 67 52 49 47 49 45 40 38 39 45
2 2 6 6 23 18 17 16 18 19 23 18 17 25 34 42 43 40 38 44 50 49 42 33 32 38 36 34 47 81 76 84 79 71 72 62 56 53 53 48 39 42 48 48
7 12 12 12 11 8 10 15 20 19 15 20 29 36 31 32 30 31 32 32 37 42 43 44 45 39 40 44 46 54 54 60 68 68 66 60 51 51 54 49 43 47 48 50
10 6 12 6 3 2 8 14 8 17 27 32 32 30 23 29 30 38 47 54 54 52 54 57 59 57 50 39 51 64 64 63 66 64 65 57 52 53 55 60 57 56 59 50
7 15 19 15 12 3 3 8 17 20 23 22 29 36 40 40 44 44 40 42 52 61 67 71 70 69 69 65 65 52 77 79 75 76 73 64 55 55 46 41 49 56 58 57
10 11 18 9 3 3 8 11 15 19 27 37 42 41 41 37 33 36 47 62 75 76 81 86 91 89 72 71 67 68 61 54 90 86 73 68 49 45 46 51 55 64 59 52
9 20 8 9 7 6 1 6 16 27 33 39 40 34 21 30 43 53 65 67 65 65 64 72 69 74 70 78 79 75 70 79 96 73 59 58 49 52 50 47 43 47 51 47
11 4 7 12 18 14 13 15 19 25 30 25 19 27 37 44 53 57 56 51 54 51 53 56 55 54 55 58 60 61 71 53 27 32 48 44 43 40 38 40 43 50 53 54
25 17 12 6 5 10 16 17 17 17 23 32 42 45 41 42 36 41 44 44 50 53 58 52 40 47 54 54 37 32 30 23 25 14 23 30 30 31 34 42 49 52 54 53
24 22 17 6 4 10 11 11 16 19 23 31 35 22 23 30 28 28 35 42 46 51 54 36 26 54 57 46 15 10 18 18 23 40 39 36 38 45 51 52 58 63 60 56
30 18 9 3 3 4 9 12 15 22 27 28 19 18 26 18 18 26 40 33 32 38 42 40 49 54 52 41 33 35 36 38 40 48 47 47 50 51 49 55 55 53 57 61
23 14 9 3 2 4 9 13 16 16 14 20 17 16 15 20 26 27 28 33 29 29 31 44 69 72 53 51 56 54 51 49 48 56 55 53 49 51 55 56 52 53 60 60
18 11 8 3 6 11 14 18 11 7 7 14 14 16 18 18 21 26 28 28 25 22 34 52 61 71 61 41 43 41 33 35 45 54 54 57 59 62 61 60 59 58 63 65
14 11 10 1 5 8 10 4 12 4 14 10 19 21 16 12 20 25 26 29 34 22 40 49 60 64 68 81 57 43 45 48 37 15 39 54 57 58 65 72 63 48 40 37
16 15 8 6 3 6 12 13 15 28 23 27 24 22 20 16 20 27 29 32 32 27 29 40 48 62 68 63 76 73 60 52 47 42 33 22 18 17 21 32 32 35 32 36
18 13 13 11 14 13 28 27 26 23 20 22 19 15 15 22 22 18 16 21 33 33 31 37 42 38 58 67 66 60 67 70 68 63 54 48 39 28 24 17 10 8 7 10
19 17 19 12 18 30 24 19 25 22 18 10 13 14 17 17 16 13 12 9 23 35 43 37 41 37 32 58 55 59 65 70 64 64 60 56 54 58 51 48 42 39 38 34
20 31 30 31 26 27 32 34 25 20 16 16 23 19 14 16 13 16 9 5 11 22 33 41 47 33 45 38 48 49 49 51 57 55 57 63 55 48 41 36 35 34 30 31
Wind_Direction_500mb
316 326 322 309 305 305 307 263 274 287 303 225 220 189 200 164 155 121 121 148 156 167 181 198 207 237 211 231 223 215 207 197 191 199 212 217 229 242 237 236 244 242 241 246
313 310 326 319 321 315 277 266 252 251 292 314 302 173 161 174 154 166 179 119 120 163 175 182 187 213 214 213 211 198 195 188 184 185 181 201 202 226 225 232 239 240 249 253
291 307 323 324 267 275 47 43 43 10 267 30 31 63 37 353 171 56 90 69 163 194 192 205 194 199 211 213 194 196 196 192 177 182 240 240 235 229 232 217 219 221 235 255
245 330 285 247 271 256 130 24 9 54 40 27 73 69 55 48 61 106 100 39 318 339 270 215 229 229 224 224 216 207 202 207 207 211 229 234 231 247 233 240 238 232 246 272
140 241 275 295 310 40 64 55 39 48 37 29 27 56 51 46 25 26 338 266 277 348 275 238 229 224 221 219 219 220 214 214 221 239 243 234 229 238 245 246 253 252 253 223
309 217 275 273 96 54 43 61 29 57 43 35 32 45 327 33 36 15 324 301 340 8 331 177 121 9 163 233 233 226 229 252 245 229 237 227 236 235 218 221 228 230 244 256
251 233 256 351 28 35 74 199 55 53 48 35 39 19 8 4 1 5 1 3 348 341 333 251 281 318 333 337 295 269 250 240 225 210 198 207 211 210 215 225 247 265 264 264
182 218 280 1 22 70 155 72 56 46 41 29 14 359 353 354 360 358 2 359 0 5 356 332 306 220 241 240 265 256 241 222 231 223 209 210 217 225 232 240 255 264 268 270
146 185 88 40 48 57 66 75 82 62 29 10 353 346 339 341 338 337 335 339 345 347 347 341 312 261 231 240 206 215 215 218 234 263 248 227 221 235 241 252 262 273 270 274
81 150 89 28 349 16 65 71 54 30 0 345 347 345 346 340 336 334 335 336 340 347 360 345 336 291 270 253 237 240 224 237 225 242 249 240 239 238 249 257 263 261 262 272
311 28 344 350 87 62 35 9 358 344 345 340 344 343 337 330 325 324 327 326 327 333 339 342 329 319 296 275 255 231 240 259 236 238 245 243 243 249 253 256 261 261 268 269
222 68 98 109 100 71 28 359 330 322 343 343 337 333 322 320 333 333 331 326 324 323 324 326 315 306 315 290 251 240 241 234 231 237 245 246 244 253 258 255 253 252 257 265
26 122 135 118 80 164 347 326 351 335 329 326 323 320 343 340 331 325 324 322 322 324 320 313 306 301 295 297 280 249 236 233 232 239 242 234 241 246 251 248 258 264 269 271
331 337 344 306 278 164 104 343 336 330 327 341 344 336 331 331 329 331 327 321 314 309 306 304 301 304 299 288 286 276 262 244 246 245 238 232 235 242 248 254 258 260 261 266
280 301 272 187 146 65 6 351 339 344 342 336 335 332 327 324 317 314 315 316 313 309 304 301 301 298 295 287 281 277 264 295 244 237 231 231 232 240 244 252 266 273 279 284
278 266 175 85 5 245 139 359 354 346 336 328 320 317 309 304 307 312 319 322 324 322 318 316 310 312 301 294 293 292 299 291 286 267 238 225 233 239 244 260 265 272 277 291
170 74 75 67 69 54 37 11 351 332 323 320 317 312 312 316 318 324 328 329 328 332 333 331 323 323 319 311 308 299 289 270 265 286 235 237 246 248 246 255 264 269 273 280
176 155 136 117 67 2 350 344 329 310 318 321 317 316 322 323 333 333 329 341 345 339 338 338 342 343 321 307 307 300 279 242 183 266 261 255 250 251 257 266 274 275 275 282
150 141 148 151 338 338 317 309 317 322 324 320 335 344 334 334 335 341 358 3 357 349 355 354 5 350 354 355 301 257 265 248 246 258 252 257 263 259 264 266 268 272 276 275
134 134 134 160 217 291 302 287 284 309 318 333 338 332 340 22 30 15 19 10 8 12 25 19 355 346 337 334 327 313 297 277 269 266 264 263 267 265 269 271 273 269 266 273
133 136 141 121 8 277 283 304 292 318 330 337 348 1 68 42 21 12 3 6 8 2 16 15 14 9 346 330 318 308 297 289 277 267 266 260 258 264 269 271 275 267 266 275
133 135 120 117 285 294 303 294 294 269 3 23 65 69 49 46 45 33 18 11 5 28 25 17 15 16 18 3 10 9 353 315 279 262 260 260 262 263 265 269 271 269 270 276
138 135 124 262 342 358 355 54 152 75 100 80 89 67 44 13 35 26 8 8 1 19 25 29 27 25 24 30 27 23 21 21 16 314 258 256 263 264 265 267 267 274 270 273
132 128 133 71 85 125 97 115 120 109 103 89 80 67 56 55 39 30 29 33 42 51 31 24 26 30 31 31 36 41 41 39 39 42 42 28 350 304 286 265 247 266 273 281
131 137 125 101 133 117 124 121 118 126 97 75 62 64 27 46 52 29 31 35 39 41 34 29 26 26 34 36 38 41 43 45 49 53 53 50 45 38 35 37 34 13 347 12
122 119 118 115 111 131 121 124 127 131 128 115 109 103 70 41 36 22 356 11 36 39 42 37 37 35 31 34 36 42 44 45 45 44 46 46 50 58 62 58 59 61 62 61
128 128 111 114 117 122 132 127 122 123 116 102 85 77 34 10 3 31 18 12 69 55 43 45 36 39 46 39 38 40 38 38 40 40 43 45 47 44 51 51 51 53 52 40
Wind_Speed_850mb
15 19 17 19 20 17 11 15 7 20 11 16 17 18 26 27 15 12 11 50 38 50 60 76 90 58 68 63 50 75 71 57 53 55 50 40 27 31 34 38 38 43 49 52
10 16 17 12 19 20 17 17 13 13 14 14 18 40 30 21 23 22 16 16 21 35 47 34 27 32 52 45 58 87 76 67 64 54 41 37 39 56 42 37 46 44 46 54
10 15 19 14 19 15 7 13 11 11 12 14 21 45 43 12 18 37 30 17 4 26 17 21 21 26 38 44 54 76 75 68 62 48 34 70 54 39 53 45 51 54 44 53
8 9 12 19 18 14 7 11 15 18 28 36 33 53 73 55 33 23 23 21 48 64 23 34 36 39 40 43 45 52 66 69 62 44 48 62 66 50 50 52 56 50 54 46
6 5 16 21 6 11 8 15 23 26 28 45 37 47 47 40 35 18 12 7 25 49 11 40 41 37 38 39 46 54 61 63 46 46 49 42 39 41 40 58 64 63 48 58
2 3 7 8 8 20 11 7 20 34 24 32 44 14 8 31 31 19 17 9 18 47 3 28 8 33 5 25 43 54 52 45 39 40 36 37 36 27 24 21 17 20 38 52
6 8 11 8 16 15 4 7 30 34 30 31 12 16 33 37 32 26 26 16 32 35 29 38 33 43 32 22 32 17 26 27 27 29 32 35 33 29 28 23 19 19 26 34
6 6 6 15 8 8 10 28 24 28 35 36 34 34 35 35 37 34 36 39 37 37 35 27 32 54 41 19 14 18 17 19 21 32 41 41 40 39 34 29 28 31 36 40
12 10 10 32 26 21 18 12 23 21 20 26 30 31 34 38 37 39 42 44 44 44 36 32 23 29 57 69 72 56 55 48 29 41 43 42 42 41 39 39 39 39 36 35
5 2 16 17 20 14 19 25 19 17 18 19 22 25 31 39 44 50 49 44 36 34 33 36 32 24 27 38 73 78 63 56 67 70 67 52 49 47 49 45 40 38 39 45
2 2 6 6 23 18 17 16 18 19 23 18 17 25 34 42 43 40 38 44 50 49 42 33 32 38 36 34 47 81 76 84 79 71 72 62 56 53 53 48 39 42 48 48
7 12 12 12 11 8 10 15 20 19 15 20 29 36 31 32 30 31 32 32 37 42 43 44 45 39 40 44 46 54 54 60 68 68 66 60 51 51 54 49 43 47 48 50
10 6 12 6 3 2 8 14 8 17 27 32 32 30 23 29 30 38 47 54 54 52 54 57 59 57 50 39 51 64 64 63 66 64 65 57 52 53 55 60 57 56 59 50
7 15 19 15 12 3 3 8 17 20 23 22 29 36 40 40 44 44 40 42 52 61 67 71 70 69 69 65 65 52 77 79 75 76 73 64 55 55 46 41 49 56 58 57
10 11 18 9 3 3 8 11 15 19 27 37 42 41 41 37 33 36 47 62 75 76 81 86 91 89 72 71 67 68 61 54 90 86 73 68 49 45 46 51 55 64 59 52
9 20 8 9 7 6 1 6 16 27 33 39 40 34 21 30 43 53 65 67 65 65 64 72 69 74 70 78 79 75 70 79 96 73 59 58 49 52 50 47 43 47 51 47
11 4 7 12 18 14 13 15 19 25 30 25 19 27 37 44 53 57 56 51 54 51 53 56 55 54 55 58 60 61 71 53 27 32 48 44 43 40 38 40 43 50 53 54
25 17 12 6 5 10 16 17 17 17 23 32 42 45 41 42 36 41 44 44 50 53 58 52 40 47 54 54 37 32 30 23 25 14 23 30 30 31 34 42 49 52 54 53
24 22 17 6 4 10 11 11 16 19 23 31 35 22 23 30 28 28 35 42 46 51 54 36 26 54 57 46 15 10 18 18 23 40 39 36 38 45 51 52 58 63 60 56
30 18 9 3 3 4 9 12 15 22 27 28 19 18 26 18 18 26 40 33 32 38 42 40 49 54 52 41 33 35 36 38 40 48 47 47 50 51 49 55 55 53 57 61
23 14 9 3 2 4 9 13 16 16 14 20 17 16 15 20 26 27 28 33 29 29 31 44 69 72 53 51 56 54 51 49 48 56 55 53 49 51 55 56 52 53 60 60
18 11 8 3 6 11 14 18 11 7 7 14 14 16 18 18 21 26 28 28 25 22 34 52 61 71 61 41 43 41 33 35 45 54 54 57 59 62 61 60 59 58 63 65
14 11 10 1 5 8 10 4 12 4 14 10 19 21 16 12 20 25 26 29 34 22 40 49 60 64 68 81 57 43 45 48 37 15 39 54 57 58 65 72 63 48 40 37
16 15 8 6 3 6 12 13 15 28 23 27 24 22 20 16 20 27 29 32 32 27 29 40 48 62 68 63 76 73 60 52 47 42 33 22 18 17 21 32 32 35 32 36
18 13 13 11 14 13 28 27 26 23 20 22 19 15 15 22 22 18 16 21 33 33 31 37 42 38 58 67 66 60 67 70 68 63 54 48 39 28 24 17 10 8 7 10
19 17 19 12 18 30 24 19 25 22 18 10 13 14 17 17 16 13 12 9 23 35 43 37 41 37 32 58 55 59 65 70 64 64 60 56 54 58 51 48 42 39 38 34
20 31 30 31 26 27 32 34 25 20 16 16 23 19 14 16 13 16 9 5 11 22 33 41 47 33 45 38 48 49 49 51 57 55 57 63 55 48 41 36 35 34 30 31
Wind_Direction_850mb
316 326 322 309 305 305 307 263 274 287 303 225 220 189 200 164 155 121 121 148 156 167 181 198 207 237 211 231 223 215 207 197 191 199 212 217 229 242 237 236 244 242 241 246
313 310 326 319 321 315 277 266 252 251 292 314 302 173 161 174 154 166 179 119 120 163 175 182 187 213 214 213 211 198 195 188 184 185 181 201 202 226 225 232 239 240 249 253
291 307 323 324 267 275 47 43 43 10 267 30 31 63 37 353 171 56 90 69 163 194 192 205 194 199 211 213 194 196 196 192 177 182 240 240 235 229 232 217 219 221 235 255
245 330 285 247 271 256 130 24 9 54 40 27 73 69 55 48 61 106 100 39 318 339 270 215 229 229 224 224 216 207 202 207 207 211 229 234 231 247 233 240 238 232 246 272
140 241 275 295 310 40 64 55 39 48 37 29 27 56 51 46 25 26 338 266 277 348 275 238 229 224 221 219 219 220 214 214 221 239 243 234 229 238 245 246 253 252 253 223
309 217 275 273 96 54 43 61 29 57 43 35 32 45 327 33 36 15 324 301 340 8 331 177 121 9 163 233 233 226 229 252 245 229 237 227 236 235 218 221 228 230 244 256
251 233 256 351 28 35 74 199 55 53 48 35 39 19 8 4 1 5 1 3 348 341 333 251 281 318 333 337 295 269 250 240 225 210 198 207 211 210 215 225 247 265 264 264
182 218 280 1 22 70 155 72 56 46 41 29 14 359 353 354 360 358 2 359 0 5 356 332 306 220 241 240 265 256 241 222 231 223 209 210 217 225 232 240 255 264 268 270
146 185 88 40 48 57 66 75 82 62 29 10 353 346 339 341 338 337 335 339 345 347 347 341 312 261 231 240 206 215 215 218 234 263 248 227 221 235 241 252 262 273 270 274
81 150 89 28 349 16 65 71 54 30 0 345 347 345 346 340 336 334 335 336 340 347 360 345 336 291 270 253 237 240 224 237 225 242 249 240 239 238 249 257 263 261 262 272
311 28 344 350 87 62 35 9 358 344 345 340 344 343 337 330 325 324 327 326 327 333 339 342 329 319 296 275 255 231 240 259 236 238 245 243 243 249 253 256 261 261 268 269
222 68 98 109 100 71 28 359 330 322 343 343 337 333 322 320 333 333 331 326 324 323 324 326 315 306 315 290 251 240 241 234 231 237 245 246 244 253 258 255 253 252 257 265
26 122 135 118 80 164 347 326 351 335 329 326 323 320 343 340 331 325 324 322 322 324 320 313 306 301 295 297 280 249 236 233 232 239 242 234 241 246 251 248 258 264 269 271
331 337 344 306 278 164 104 343 336 330 327 341 344 336 331 331 329 331 327 321 314 309 306 304 301 304 299 288 286 276 262 244 246 245 238 232 235 242 248 254 258 260 261 266
280 301 272 187 146 65 6 351 339 344 342 336 335 332 327 324 317 314 315 316 313 309 304 301 301 298 295 287 281 277 264 295 244 237 231 231 232 240 244 252 266 273 279 284
278 266 175 85 5 245 139 359 354 346 336 328 320 317 309 304 307 312 319 322 324 322 318 316 310 312 301 294 293 292 299 291 286 267 238 225 233 239 244 260 265 272 277 291
170 74 75 67 69 54 37 11 351 332 323 320 317 312 312 316 318 324 328 329 328 332 333 331 323 323 319 311 308 299 289 270 265 286 235 237 246 248 246 255 264 269 273 280
176 155 136 117 67 2 350 344 329 310 318 321 317 316 322 323 333 333 329 341 345 339 338 338 342 343 321 307 307 300 279 242 183 266 261 255 250 251 257 266 274 275 275 282
150 141 148 151 338 338 317 309 317 322 324 320 335 344 334 334 335 341 358 3 357 349 355 354 5 350 354 355 301 257 265 248 246 258 252 257 263 259 264 266 268 272 276 275
134 134 134 160 217 291 302 287 284 309 318 333 338 332 340 22 30 15 19 10 8 12 25 19 355 346 337 334 327 313 297 277 269 266 264 263 267 265 269 271 273 269 266 273
133 136 141 121 8 277 283 304 292 318 330 337 348 1 68 42 21 12 3 6 8 2 16 15 14 9 346 330 318 308 297 289 277 267 266 260 258 264 269 271 275 267 266 275
133 135 120 117 285 294 303 294 294 269 3 23 65 69 49 46 45 33 18 11 5 28 25 17 15 16 18 3 10 9 353 315 279 262 260 260 262 263 265 269 271 269 270 276
138 135 124 262 342 358 355 54 152 75 100 80 89 67 44 13 35 26 8 8 1 19 25 29 27 25 24 30 27 23 21 21 16 314 258 256 263 264 265 267 267 274 270 273
132 128 133 71 85 125 97 115 120 109 103 89 80 67 56 55 39 30 29 33 42 51 31 24 26 30 31 31 36 41 41 39 39 42 42 28 350 304 286 265 247 266 273 281
131 137 125 101 133 117 124 121 118 126 97 75 62 64 27 46 52 29 31 35 39 41 34 29 26 26 34 36 38 41 43 45 49 53 53 50 45 38 35 37 34 13 347 12
122 119 118 115 111 131 121 124 127 131 128 115 109 103 70 41 36 22 356 11 36 39 42 37 37 35 31 34 36 42 44 45 45 44 46 46 50 58 62 58 59 61 62 61
128 128 111 114 117 122 132 127 122 123 116 102 85 77 34 10 3 31 18 12 69 55 43 45 36 39 46 39 38 40 38 38 40 40 43 45 47 44 51 51 51 53 52 40